ONEWEB-0060, 45455

Orbit data source: Space-Track

ONEWEB-0060, 45455 is a payload satellite owned by One Web (UK) in LEO that was launched on Sat, 21 Mar 2020 UTC via a SOYUZ-2-1B launch vehicle from the Tyuratam Missile And Space Complex (TTMTR). Payload-class satellites include a variety of spacecraft equipped with specific instruments for various scientific and technological missions. These include communications satellites like Starlink; space stations such as the ISS; scientific satellites like the Hubble; Earth observation satellites from companies like Planet Labs, Umbra, and HawkEye 360; GPS; miniature CubeSats for education and research; and military/defense satellites.

Loading next visibility...
Identifier
45455, 2020-020AH
Orbit
LEO
Last TLE update
20 hours ago
Origin
Manufacturer
One Web
Mission
Operational Commercial Communications
Bus & Motor
ARROW, Unknown motor
Mass
148 kg wet, ~140 kg dry
Launch date (UTC)
2020-03-21 (5 years ago)
Launch vehicle
SOYUZ-2-1B
Launch site
Tyuratam Missile And Space Complex (TTMTR)
Object type
Payload
Rocket body
Debris
Shape & HBR
Trap Box + 2 Pan, 5 m
Radar Cross Section
2.957 m², Large (>1 m²)

Expand to show TLE details & history

TLE from 20 hours ago
0 ONEWEB-0060
1 45455U 20020AH  25128.41450488 -.00000471  00000-0 -13658-2 0  9998
2 45455  87.8814 101.7577 0002154  85.9110 274.2264 13.11416724249490
Epoch: 2025-05-08T09:56Z
Definitive object data (Epoch: 2025-05-08T09:56:53.221Z)
Latitude
-0.00004°
Longitude
86.0506°
Altitude
1,220.452 km
Speed
7.244 km/s
True Right ascension
06h 47m 01s
True Declination
0° 00' 00"
Sunlit
Object was in daylight at TLE epoch
Visualization TLE readout
Latitude
69.95553°
Longitude
91.67014°
Altitude
1,228.267 km
Speed
7.247 km/s
Apparent Right ascension
04h 05m 45s
Apparent Declination
25° 42' 05"
Sunlit
Object is in daylight
Visualization observer readout
Local Sidereal Time
14:35:35
Azimuth
338.267° N
Elevation
-21.101°
Doppler factor
1
Orbital elements
Apogee altitude
1,216.437 km
Perigee altitude
1,213.166 km
Semi-major axis
7,592.939 km
Eccentricity
0.0002154
Inclination
87.8814°
RAAN
101.7577°
Arg. of periapsis
85.911°
True anomaly
274.20178°
Mean anomaly
274.2264°
Eccentric anomaly
274.21409°
Mean motion
3.28041 °/min
BSTAR
-0.0013658
Orbital period
109.74 mins
Loading maneuver chart data...
Loading SW <> Apogee altitude chart data...
Loading historical data...
Loading historical data...
Loading historical data...
Loading historical data...
Loading historical data...
Loading historical data...
Loading historical data...

ONEWEB-0060 Visibility forecast

Observer location: undefined°, undefined°

Span
Click to sort rows by Start time (UTC) header in descending order
Start Az.
Max El. time (UTC)
Max El. Az.
Max El.
End time (UTC)
End Az.
6 mins2025-05-09 08:33:44.959Z44.265° NE2025-05-09 08:36:44.959Z69.726° E14.013°2025-05-09 08:39:44.959Z95.712° ESE
13 mins2025-05-09 10:21:44.959Z0.138° NNE2025-05-09 10:27:44.959Z44.44° NE44.959°2025-05-09 10:34:44.959Z180.426° SSW
5 mins2025-05-09 12:14:44.959Z306.063° NW2025-05-09 12:16:44.959Z287.846° WNW15.033°2025-05-09 12:19:44.959Z261.669° W
6 mins2025-05-09 20:54:44.959Z97.086° ESE2025-05-09 20:57:44.959Z69.728° E15.874°2025-05-09 21:00:44.959Z43.307° NE
13 mins2025-05-09 22:40:44.959Z182.296° SSW2025-05-09 22:46:44.959Z320.948° NNW44.611°2025-05-09 22:53:44.959Z359.431° N
4 mins2025-05-10 00:35:44.959Z275.017° WNW2025-05-10 00:37:44.959Z292.469° WNW13.148°2025-05-10 00:39:44.959Z309.454° NW
|